Time,TemperatureF,DewpointF,PressureIn,WindDirection,WindDirectionDegrees,WindSpeedMPH,WindSpeedGustMPH,Humidity,HourlyPrecipIn,Conditions,Clouds,dailyrainin,SoftwareType,DateUTC
2013-09-12 00:12:00,80.8,76.9,29.89,East,90,4.7,-999.0,88,-99.99,,,0.00,Acu-Link.com,2013-09-12 04:12:00,
2013-09-12 00:27:00,81.0,77.1,29.89,East,90,3.1,-999.0,88,-99.99,,,0.00,Acu-Link.com,2013-09-12 04:27:00,
2013-09-12 00:42:00,81.0,76.7,29.88,NE,45,3.8,-999.0,87,-99.99,,,0.00,Acu-Link.com,2013-09-12 04:42:00,
2013-09-12 00:58:00,80.8,76.2,29.88,ESE,112,3.8,-999.0,86,-99.99,,,0.00,Acu-Link.com,2013-09-12 04:58:00,
2013-09-12 01:13:00,80.8,76.2,29.87,SSE,157,3.8,-999.0,86,-99.99,,,0.00,Acu-Link.com,2013-09-12 05:13:00,
2013-09-12 01:28:00,80.4,76.5,29.87,East,90,2.2,-999.0,88,-99.99,,,0.00,Acu-Link.com,2013-09-12 05:28:00,
2013-09-12 01:43:00,80.2,76.7,29.86,SW,225,0.0,-999.0,89,-99.99,,,0.00,Acu-Link.com,2013-09-12 05:43:00,
2013-09-12 01:59:00,79.7,76.8,29.85,South,180,0.0,-999.0,91,-99.99,,,0.00,Acu-Link.com,2013-09-12 05:59:00,
2013-09-12 02:14:00,79.3,76.8,29.84,West,270,0.0,-999.0,92,-99.99,,,0.00,Acu-Link.com,2013-09-12 06:14:00,
2013-09-12 02:29:00,78.6,76.4,29.84,WSW,247,1.6,-999.0,93,-99.99,,,0.00,Acu-Link.com,2013-09-12 06:29:00,
2013-09-12 02:44:00,78.4,76.6,29.83,WSW,247,0.0,-999.0,94,-99.99,,,0.00,Acu-Link.com,2013-09-12 06:44:00,
2013-09-12 02:59:00,78.3,76.7,29.83,WSW,247,2.2,-999.0,95,-99.99,,,0.00,Acu-Link.com,2013-09-12 06:59:00,
2013-09-12 03:15:00,78.1,76.5,29.83,South,180,1.1,-999.0,95,-99.99,,,0.00,Acu-Link.com,2013-09-12 07:15:00,
2013-09-12 03:30:00,77.9,76.3,29.83,SSW,202,1.1,-999.0,95,-99.99,,,0.00,Acu-Link.com,2013-09-12 07:30:00,
2013-09-12 03:45:00,77.7,76.5,29.83,West,270,1.6,-999.0,96,-99.99,,,0.00,Acu-Link.com,2013-09-12 07:45:00,
2013-09-12 04:00:00,77.5,76.3,29.83,SSW,202,1.1,-999.0,96,-99.99,,,0.00,Acu-Link.com,2013-09-12 08:00:00,
2013-09-12 04:15:00,77.5,76.3,29.82,SW,225,0.0,-999.0,96,-99.99,,,0.00,Acu-Link.com,2013-09-12 08:15:00,
2013-09-12 04:31:00,77.5,76.3,29.83,West,270,1.6,-999.0,96,-99.99,,,0.00,Acu-Link.com,2013-09-12 08:31:00,
2013-09-12 04:46:00,77.4,76.1,29.82,West,270,1.6,-999.0,96,-99.99,,,0.00,Acu-Link.com,2013-09-12 08:46:00,
2013-09-12 05:01:00,77.5,76.6,29.82,SSW,202,1.1,-999.0,97,-99.99,,,0.00,Acu-Link.com,2013-09-12 09:01:00,
2013-09-12 05:16:00,77.5,76.6,29.83,WSW,247,2.7,-999.0,97,-99.99,,,0.00,Acu-Link.com,2013-09-12 09:16:00,
2013-09-12 05:31:00,77.4,76.4,29.83,WNW,292,0.0,-999.0,97,-99.99,,,0.00,Acu-Link.com,2013-09-12 09:31:00,
2013-09-12 05:46:00,77.4,76.4,29.83,WSW,247,2.2,-999.0,97,-99.99,,,0.00,Acu-Link.com,2013-09-12 09:46:00,
2013-09-12 06:02:00,77.4,76.7,29.84,NNE,22,3.8,-999.0,98,-99.99,,,0.01,Acu-Link.com,2013-09-12 10:02:00,
2013-09-12 06:17:00,77.2,76.6,29.83,SW,225,2.2,-999.0,98,-99.99,,,0.16,Acu-Link.com,2013-09-12 10:17:00,
2013-09-12 06:32:00,77.4,77.1,29.84,SW,225,2.2,-999.0,99,-99.99,,,0.17,Acu-Link.com,2013-09-12 10:32:00,
2013-09-12 06:47:00,77.2,76.9,29.84,ESE,112,2.7,-999.0,99,-99.99,,,0.17,Acu-Link.com,2013-09-12 10:47:00,
2013-09-12 07:02:00,77.4,77.1,29.85,East,90,0.0,-999.0,99,-99.99,,,0.20,Acu-Link.com,2013-09-12 11:02:00,
2013-09-12 07:18:00,78.1,77.8,29.84,SE,135,1.1,-999.0,99,-99.99,,,0.21,Acu-Link.com,2013-09-12 11:18:00,
2013-09-12 07:33:00,79.0,77.7,29.85,ESE,112,0.0,-999.0,96,-99.99,,,0.21,Acu-Link.com,2013-09-12 11:33:00,
2013-09-12 07:48:00,79.0,77.4,29.85,SSE,157,6.7,-999.0,95,-99.99,,,0.21,Acu-Link.com,2013-09-12 11:48:00,
2013-09-12 08:03:00,79.3,77.8,29.85,ESE,112,4.3,-999.0,95,-99.99,,,0.21,Acu-Link.com,2013-09-12 12:03:00,
2013-09-12 08:18:00,79.9,78.3,29.85,West,270,0.0,-999.0,95,-99.99,,,0.21,Acu-Link.com,2013-09-12 12:18:00,
2013-09-12 08:34:00,80.8,78.9,29.85,South,180,2.2,-999.0,94,-99.99,,,0.21,Acu-Link.com,2013-09-12 12:34:00,
2013-09-12 08:49:00,81.1,78.6,29.85,ESE,112,3.1,-999.0,92,-99.99,,,0.21,Acu-Link.com,2013-09-12 12:49:00,
2013-09-12 09:04:00,78.8,76.9,29.86,ESE,112,5.1,-999.0,94,-99.99,,,0.21,Acu-Link.com,2013-09-12 13:04:00,
2013-09-12 09:19:00,78.8,77.2,29.86,SSW,202,1.1,-999.0,95,-99.99,,,0.23,Acu-Link.com,2013-09-12 13:19:00,
2013-09-12 09:35:00,79.9,77.7,29.85,South,180,1.6,-999.0,93,-99.99,,,0.24,Acu-Link.com,2013-09-12 13:35:00,
2013-09-12 09:50:00,80.4,77.9,29.85,ESE,112,2.7,-999.0,92,-99.99,,,0.24,Acu-Link.com,2013-09-12 13:50:00,
2013-09-12 10:05:00,81.5,78.6,29.85,ESE,112,2.2,-999.0,91,-99.99,,,0.24,Acu-Link.com,2013-09-12 14:05:00,
2013-09-12 10:20:00,83.7,79.4,29.85,NE,45,0.0,-999.0,87,-99.99,,,0.24,Acu-Link.com,2013-09-12 14:20:00,
2013-09-12 10:35:00,84.2,79.2,29.85,NNE,22,1.6,-999.0,85,-99.99,,,0.24,Acu-Link.com,2013-09-12 14:35:00,
2013-09-12 10:51:00,83.8,79.9,29.84,ESE,112,1.1,-999.0,88,-99.99,,,0.24,Acu-Link.com,2013-09-12 14:51:00,
2013-09-12 11:06:00,84.4,79.0,29.84,NNE,22,0.0,-999.0,84,-99.99,,,0.24,Acu-Link.com,2013-09-12 15:06:00,
2013-09-12 11:21:00,80.1,77.8,29.84,East,90,8.3,-999.0,93,-99.99,,,0.24,Acu-Link.com,2013-09-12 15:21:00,
2013-09-12 11:36:00,79.3,78.1,29.84,NE,45,2.2,-999.0,96,-99.99,,,0.81,Acu-Link.com,2013-09-12 15:36:00,
2013-09-12 11:51:00,79.9,78.6,29.84,NNW,337,1.1,-999.0,96,-99.99,,,0.81,Acu-Link.com,2013-09-12 15:51:00,
2013-09-12 12:07:00,78.6,76.1,29.83,SSE,157,8.9,-999.0,92,-99.99,,,0.81,Acu-Link.com,2013-09-12 16:07:00,
2013-09-12 12:22:00,77.2,75.3,29.83,SW,225,4.3,-999.0,94,-99.99,,,0.88,Acu-Link.com,2013-09-12 16:22:00,
2013-09-12 12:37:00,77.9,76.3,29.82,SE,135,1.6,-999.0,95,-99.99,,,0.89,Acu-Link.com,2013-09-12 16:37:00,
2013-09-12 12:52:00,78.3,76.1,29.82,West,270,2.7,-999.0,93,-99.99,,,0.89,Acu-Link.com,2013-09-12 16:52:00,
2013-09-12 13:07:00,79.3,77.1,29.81,SE,135,1.6,-999.0,93,-99.99,,,0.89,Acu-Link.com,2013-09-12 17:07:00,
2013-09-12 13:23:00,80.1,77.5,29.81,West,270,3.1,-999.0,92,-99.99,,,0.89,Acu-Link.com,2013-09-12 17:23:00,
2013-09-12 13:38:00,79.9,77.7,29.80,WSW,247,1.6,-999.0,93,-99.99,,,0.92,Acu-Link.com,2013-09-12 17:38:00,
2013-09-12 13:53:00,80.6,78.4,29.80,West,270,2.7,-999.0,93,-99.99,,,0.92,Acu-Link.com,2013-09-12 17:53:00,
2013-09-12 14:08:00,81.0,78.1,29.80,WNW,292,2.7,-999.0,91,-99.99,,,0.92,Acu-Link.com,2013-09-12 18:08:00,
2013-09-12 14:24:00,77.5,75.7,29.80,SE,135,11.9,-999.0,94,-99.99,,,1.01,Acu-Link.com,2013-09-12 18:24:00,
2013-09-12 14:39:00,76.8,75.3,29.79,West,270,1.6,-999.0,95,-99.99,,,1.23,Acu-Link.com,2013-09-12 18:39:00,
2013-09-12 14:54:00,78.3,76.7,29.78,SW,225,1.6,-999.0,95,-99.99,,,1.28,Acu-Link.com,2013-09-12 18:54:00,
2013-09-12 15:09:00,79.2,77.3,29.79,South,180,0.0,-999.0,94,-99.99,,,1.28,Acu-Link.com,2013-09-12 19:09:00,
2013-09-12 15:24:00,80.2,77.7,29.78,SW,225,2.2,-999.0,92,-99.99,,,1.28,Acu-Link.com,2013-09-12 19:24:00,
2013-09-12 15:40:00,81.0,78.4,29.78,West,270,0.0,-999.0,92,-99.99,,,1.28,Acu-Link.com,2013-09-12 19:40:00,
2013-09-12 15:55:00,82.0,79.1,29.78,WNW,292,1.1,-999.0,91,-99.99,,,1.28,Acu-Link.com,2013-09-12 19:55:00,
2013-09-12 16:10:00,82.9,79.0,29.78,ENE,67,4.7,-999.0,88,-99.99,,,1.28,Acu-Link.com,2013-09-12 20:10:00,
2013-09-12 16:25:00,82.9,78.7,29.77,East,90,4.7,-999.0,87,-99.99,,,1.28,Acu-Link.com,2013-09-12 20:25:00,
2013-09-12 16:40:00,83.1,78.8,29.77,ESE,112,2.7,-999.0,87,-99.99,,,1.28,Acu-Link.com,2013-09-12 20:40:00,
2013-09-12 16:56:00,83.1,78.5,29.77,ESE,112,5.1,-999.0,86,-99.99,,,1.28,Acu-Link.com,2013-09-12 20:56:00,
2013-09-12 17:11:00,83.1,78.1,29.77,ESE,112,3.8,-999.0,85,-99.99,,,1.28,Acu-Link.com,2013-09-12 21:11:00,
2013-09-12 17:26:00,82.8,77.8,29.77,ESE,112,5.1,-999.0,85,-99.99,,,1.28,Acu-Link.com,2013-09-12 21:26:00,
2013-09-12 17:41:00,82.4,77.8,29.77,ENE,67,5.1,-999.0,86,-99.99,,,1.28,Acu-Link.com,2013-09-12 21:41:00,
2013-09-12 17:56:00,82.2,77.6,29.77,SE,135,2.2,-999.0,86,-99.99,,,1.28,Acu-Link.com,2013-09-12 21:56:00,
2013-09-12 18:12:00,81.7,77.4,29.77,ESE,112,3.8,-999.0,87,-99.99,,,1.28,Acu-Link.com,2013-09-12 22:12:00,
2013-09-12 18:27:00,81.5,77.2,29.77,ESE,112,3.1,-999.0,87,-99.99,,,1.28,Acu-Link.com,2013-09-12 22:27:00,
2013-09-12 18:42:00,81.3,77.1,29.77,ENE,67,3.8,-999.0,87,-99.99,,,1.28,Acu-Link.com,2013-09-12 22:42:00,
2013-09-12 18:57:00,81.3,77.1,29.77,SE,135,3.8,-999.0,87,-99.99,,,1.28,Acu-Link.com,2013-09-12 22:57:00,
2013-09-12 19:13:00,81.1,77.2,29.77,East,90,5.1,-999.0,88,-99.99,,,1.28,Acu-Link.com,2013-09-12 23:13:00,
2013-09-12 19:28:00,81.0,76.7,29.78,East,90,3.8,-999.0,87,-99.99,,,1.28,Acu-Link.com,2013-09-12 23:28:00,
2013-09-12 19:43:00,80.8,76.5,29.78,ESE,112,2.7,-999.0,87,-99.99,,,1.28,Acu-Link.com,2013-09-12 23:43:00,
2013-09-12 19:58:00,80.6,76.4,29.77,ESE,112,2.7,-999.0,87,-99.99,,,1.28,Acu-Link.com,2013-09-12 23:58:00,
2013-09-12 20:13:00,80.6,76.7,29.78,ESE,112,3.8,-999.0,88,-99.99,,,1.28,Acu-Link.com,2013-09-13 00:13:00,
2013-09-12 20:29:00,81.0,76.7,29.79,ENE,67,4.7,-999.0,87,-99.99,,,1.28,Acu-Link.com,2013-09-13 00:29:00,
2013-09-12 20:44:00,81.0,76.0,29.79,ESE,112,5.1,-999.0,85,-99.99,,,1.28,Acu-Link.com,2013-09-13 00:44:00,
2013-09-12 20:59:00,81.0,76.0,29.80,ESE,112,2.2,-999.0,85,-99.99,,,1.28,Acu-Link.com,2013-09-13 00:59:00,
2013-09-12 21:14:00,81.0,76.7,29.80,SE,135,3.8,-999.0,87,-99.99,,,1.28,Acu-Link.com,2013-09-13 01:14:00,
2013-09-12 21:29:00,81.0,76.7,29.80,East,90,5.8,-999.0,87,-99.99,,,1.28,Acu-Link.com,2013-09-13 01:29:00,
2013-09-12 21:45:00,81.1,76.2,29.80,SE,135,2.7,-999.0,85,-99.99,,,1.28,Acu-Link.com,2013-09-13 01:45:00,
2013-09-12 22:00:00,81.1,76.2,29.80,ESE,112,2.7,-999.0,85,-99.99,,,1.28,Acu-Link.com,2013-09-13 02:00:00,
2013-09-12 22:15:00,80.8,75.8,29.80,ESE,112,2.7,-999.0,85,-99.99,,,1.28,Acu-Link.com,2013-09-13 02:15:00,
2013-09-12 22:30:00,80.6,76.0,29.81,SSE,157,1.6,-999.0,86,-99.99,,,1.28,Acu-Link.com,2013-09-13 02:30:00,
2013-09-12 22:46:00,80.6,76.4,29.81,SSE,157,2.7,-999.0,87,-99.99,,,1.28,Acu-Link.com,2013-09-13 02:46:00,
2013-09-12 23:01:00,80.4,76.5,29.80,East,90,2.2,-999.0,88,-99.99,,,1.28,Acu-Link.com,2013-09-13 03:01:00,
2013-09-12 23:16:00,80.6,76.0,29.80,ESE,112,3.1,-999.0,86,-99.99,,,1.28,Acu-Link.com,2013-09-13 03:16:00,
2013-09-12 23:31:00,80.4,76.2,29.80,NNW,337,0.0,-999.0,87,-99.99,,,1.28,Acu-Link.com,2013-09-13 03:31:00,
2013-09-12 23:46:00,79.5,76.7,29.79,SW,225,0.0,-999.0,91,-99.99,,,1.28,Acu-Link.com,2013-09-13 03:46:00,